Location: Arbon
(43.0005°N, 0.7472°E)
Time: 09:36:10
(UTC+00:00)

SR - Pass Details

Date: 26 November 2020
Orbit: 575 x 880 km, 66.7° (Epoch: 21 January)

Event Time Altitude Azimuth Distance (km) Brightness Sun altitude
Rises 18:36:28 0° 201° (SSW) 2,781 ? -23.5°
Reaches altitude 10° 18:38:38 10° 198° (SSW) 1,902 ? -23.9°
Enters shadow 18:41:39 44° 179° (S) 836 ? -24.5°
Maximum altitude 18:42:50 64° 118° (ESE) 672 - -24.7°
Drops below altitude 10° 18:47:20 10° 36° (NE) 2,032 - -25.5°
Sets 18:49:44 0° 34° (NE) 2,992 - -25.9°
